Location: Crescent
(42.8242°N, 73.7329°W)
Time: 11:53:56
(UTC+00:00)

Explorer 11/Cluster Stage 4 - Pass Details

Date: 22 February 2026
Orbit: 463 x 1176 km, 28.8° (Epoch: 8 March)

Event Time Altitude Azimuth Distance (km) Brightness Sun altitude
Rises 16:31:45 0° 228° (SW) 3,246 10.1 36.5°
Reaches altitude 10° 16:35:46 10° 202° (SSW) 2,134 9.8 36.6°
Maximum altitude 16:37:55 13° 176° (S) 1,858 10.0 36.7°
Drops below altitude 10° 16:39:55 10° 149° (SSE) 1,951 9.7 36.8°
Sets 16:43:15 0° 120° (ESE) 2,715 9.8 36.9°
